Location: Kelshall
(52.0000°N, 0.0500°W)
Time: 08:36:39
(UTC+00:00)

Meteor 1-15 Rocket - Pass Details

Date: 18 January 2021
Orbit: 840 x 907 km, 81.2° (Epoch: 24 February)

Event Time Altitude Azimuth Distance (km) Brightness Sun altitude
Exits shadow 06:02:09 26° 304° (NW) 1,636 5.2 -17.3°
Drops below altitude 10° 06:06:34 10° 355° (N) 2,512 6.5 -16.6°
Sets 06:09:28 0° 8° (N) 3,465 7.3 -16.2°
